Weather History for KFFO - February, 2014

Change the Weather History Date:

Tuesday, February 11, 2014

  Actual Average Record
Temperature  
Mean Temperature 4 °F -  
Max Temperature 15 °F 39 °F 73 °F (1999)
Min Temperature -7 °F 22 °F -7 °F (2014)
Degree Days  
Heating Degree Days 61    
Moisture  
Dew Point -4 °F    
Average Humidity 70    
Maximum Humidity 82    
Minimum Humidity 58    
Precipitation  
Precipitation 0.00 in - - ()
Snow  
Snow 0.00 in - - ()
Snow Depth 3.00 in    
Sea Level Pressure  
Sea Level Pressure 30.51 in    
Wind  
Wind Speed 4 mph (NNE)    
Max Wind Speed 8 mph    
Max Gust Speed -    
Visibility 10 miles    
Events      
Averages and records for this station are not official NWS values.
T = Trace of Precipitation, MM = Missing Value Source: NWS Daily Summary

Daily Weather History Graph

Daily Weather History Graph

Search for Another Location

Airport or City:

Trip Planner

Search our weather history database for the weather conditions in past years. The results will help you decide how hot, cold, wet, or windy it might be!

Date:

Astronomy

Feb. 11, 2014 Rise Set
Actual Time 7:33 AM EST 6:07 PM EST
Civil Twilight 7:05 AM EST 6:35 PM EST
Nautical Twilight 6:33 AM EST 7:07 PM EST
Astronomical Twilight 6:02 AM EST 7:38 PM EST
Moon 3:27 PM EST (2/11) 5:09 AM EST (2/11)
Length of Visible Light 11h 29m
Length of Day
10h 34m
Waxing Gibbous, 90% of the Moon is Illuminated
Feb 11
Waxing Gibbous
Feb 14
Full
Feb 22
Last Quarter
Mar 1
New
Mar 8
First Quarter

Hourly Weather History & Observations

Time (EST) Temp. Windchill Dew Point Humidity Pressure Visibility Wind Dir Wind Speed Gust Speed Precip Events Conditions
12:58 AM 2.1 °F - -3.8 °F 76% 30.46 in 10.0 mi North 2.3 mph - N/A   Clear
1:58 AM 1.0 °F -10.3 °F -4.9 °F 76% 30.45 in 10.0 mi North 5.8 mph - N/A   Clear
2:58 AM -0.0 °F -7.9 °F -5.3 °F 79% 30.45 in 10.0 mi North 3.5 mph - N/A   Clear
3:58 AM -0.9 °F -8.9 °F -6.0 °F 79% 30.46 in 10.0 mi NNW 3.5 mph - N/A   Clear
4:58 AM -2.2 °F - -6.5 °F 82% 30.48 in 10.0 mi Calm Calm - N/A   Clear
5:58 AM -4.0 °F - -9.2 °F 78% 30.50 in 10.0 mi WNW 2.3 mph - N/A   Clear
6:58 AM -7.4 °F - -13.4 °F 75% 30.51 in 10.0 mi NNE 1.2 mph - N/A   Clear
7:58 AM -6.2 °F - -11.9 °F 76% 30.53 in 10.0 mi NW 1.2 mph - N/A   Clear
8:58 AM -4.0 °F - -8.9 °F 80% 30.55 in 10.0 mi North 2.3 mph - N/A   Clear
9:58 AM 0.1 °F -7.7 °F -5.3 °F 78% 30.56 in 10.0 mi NNW 3.5 mph - N/A   Clear
10:58 AM 5.0 °F -4.1 °F -1.8 °F 73% 30.55 in 10.0 mi ENE 4.6 mph - N/A   Clear
11:58 AM 10.0 °F 1.8 °F 0.5 °F 65% 30.55 in 10.0 mi NE 4.6 mph - N/A   Clear
12:58 PM 12.7 °F 5.0 °F 2.3 °F 63% 30.53 in 10.0 mi East 4.6 mph - N/A   Clear
1:58 PM 14.4 °F 6.9 °F 2.1 °F 58% 30.51 in 10.0 mi NE 4.6 mph - N/A   Clear
2:58 PM 15.6 °F 5.9 °F 3.7 °F 59% 30.50 in 10.0 mi North 6.9 mph - N/A   Clear
3:58 PM 15.3 °F 4.4 °F 2.7 °F 58% 30.50 in 10.0 mi NNE 8.1 mph - N/A   Clear
4:58 PM 14.4 °F 3.3 °F 2.1 °F 58% 30.51 in 10.0 mi NNW 8.1 mph - N/A   Clear
5:58 PM 13.1 °F 2.8 °F 0.7 °F 58% 30.51 in 10.0 mi NNE 6.9 mph - N/A   Clear
6:58 PM 10.4 °F 4.0 °F -0.2 °F 62% 30.53 in 10.0 mi NNE 3.5 mph - N/A   Clear
7:58 PM 8.4 °F -0.1 °F -1.3 °F 65% 30.53 in 10.0 mi NNE 4.6 mph - N/A   Clear
8:58 PM 5.7 °F -3.2 °F -2.7 °F 68% 30.51 in 10.0 mi NE 4.6 mph - N/A   Clear
9:58 PM 2.7 °F -6.8 °F -4.7 °F 71% 30.50 in 10.0 mi NNE 4.6 mph - N/A   Clear
10:58 PM 1.0 °F - -6.7 °F 70% 30.51 in 10.0 mi ENE 1.2 mph - N/A   Clear
11:58 PM -0.8 °F -10.8 °F -6.5 °F 77% 30.46 in 10.0 mi NNE 4.6 mph - N/A   Clear